RH
80 79 78 78 81 80 79 78 79 77 79 79 79 74 91 94 87 83 92 25 16 20 74 66 48 32 26 33 42 45 57 62 43 44 33 22 22 24 24 29 32 37 44 46 90
75 76 77 75 74 75 76 78 79 79 79 79 78 80 76 95 84 80 23 36 60 67 70 43 39 29 33 35 44 49 65 52 39 34 26 24 23 25 24 28 32 42 70 90 99
75 78 77 77 78 78 77 77 78 79 80 81 81 79 79 79 86 74 67 75 72 70 84 55 29 28 34 41 44 49 53 42 33 26 22 23 22 23 29 27 27 34 73 92 98
77 76 77 77 77 78 77 78 79 80 81 83 82 83 82 81 79 28 54 58 76 79 72 35 29 33 40 47 44 47 44 38 30 29 25 27 23 24 25 22 25 35 69 82 96
77 76 76 77 78 78 79 80 80 80 80 81 85 80 84 88 75 36 46 49 57 84 66 40 33 38 40 41 46 50 43 44 37 36 30 27 27 28 27 27 44 59 67 74 88
74 76 78 79 80 80 80 81 82 83 84 84 85 85 88 93 55 52 59 56 66 75 66 39 33 32 35 36 40 37 46 38 37 36 32 32 30 29 28 34 46 62 70 71 73
77 79 79 81 81 82 82 84 85 83 84 81 81 90 86 78 49 49 51 51 56 61 64 38 28 30 36 38 38 42 44 41 42 38 35 35 41 43 31 35 41 52 62 68 69
79 81 81 81 82 84 84 85 77 80 76 76 86 94 89 61 54 61 54 61 57 56 48 38 28 37 39 42 51 52 53 61 48 44 37 37 55 37 39 36 39 44 54 63 63
81 82 82 82 83 82 88 76 60 73 65 79 84 76 80 52 70 63 56 69 58 46 48 33 35 45 48 63 70 73 80 72 57 52 49 45 52 42 42 44 42 43 48 61 67
83 84 84 84 84 87 83 43 52 64 59 52 81 85 70 60 55 46 50 67 38 46 51 48 63 67 68 65 86 85 81 72 64 54 59 57 56 45 41 57 59 54 53 70 79
84 86 86 84 83 90 68 57 67 65 68 81 76 67 65 55 50 46 50 63 41 51 60 59 71 75 68 66 64 73 72 71 63 54 60 71 66 56 47 57 64 67 75 91 85
86 87 88 86 88 77 66 76 90 92 91 67 63 66 61 59 77 57 62 66 57 55 58 65 81 68 67 66 65 69 75 79 66 52 64 66 70 68 54 57 58 65 78 87 80
88 88 88 85 85 69 78 79 89 97 94 80 58 64 60 62 78 66 81 59 52 61 58 64 57 62 70 79 80 77 78 76 73 47 47 48 63 60 60 67 74 80 82 86 88
90 90 89 78 67 85 76 83 86 99 93 63 45 56 50 53 70 64 75 86 84 77 66 64 57 69 77 81 76 95 76 73 73 59 93 60 90 60 60 69 70 86 86 86 85
90 90 89 70 76 84 81 82 82 94 81 36 54 45 54 59 52 85 83 90 99 68 68 68 69 94 97 78 76 81 65 78 69 92 74 66 85 72 71 73 66 83 88 86 85
88 88 79 62 71 72 86 81 76 79 69 70 57 64 70 73 72 79 87 84 84 69 59 61 48 62 71 53 68 55 66 71 76 95 97 85 81 79 78 77 63 73 86 81 72
79 46 50 63 78 85 87 68 83 82 59 73 80 69 74 87 99 91 95 100 99 94 95 75 86 55 38 81 64 58 80 96 96 97 94 78 87 80 56 68 81 82 83 77 88
54 34 52 62 69 85 76 82 87 65 91 78 88 79 81 93 81 83 100 96 100 91 96 96 97 63 54 51 88 96 79 89 88 98 87 80 99 78 61 67 89 89 88 71 74
49 38 50 55 57 82 85 92 89 94 91 94 84 82 82 78 88 85 97 96 92 99 87 96 90 64 42 42 53 65 86 60 89 94 96 87 74 59 51 69 80 83 80 80 64
62 64 52 47 54 60 89 87 86 80 100 93 94 85 95 88 96 97 97 99 100 97 82 96 88 87 61 54 53 57 62 82 90 100 100 80 76 79 61 69 69 76 74 81 82
64 71 46 45 47 89 99 95 90 76 91 99 93 94 91 97 98 98 98 100 100 100 99 83 89 89 84 70 84 66 80 83 78 86 90 94 81 82 79 78 74 72 78 78 82
82 70 46 44 86 99 94 85 77 88 84 99 84 89 94 94 98 97 98 99 100 100 99 97 85 96 79 62 62 52 64 70 90 95 93 94 80 81 84 90 76 71 77 83 90
95 93 48 43 92 98 91 82 83 90 85 98 96 91 85 95 96 80 88 100 100 100 98 98 94 97 96 79 64 56 64 78 84 92 98 90 77 66 60 79 83 72 76 82 95
92 93 90 92 95 98 98 87 85 67 78 76 96 81 86 87 91 92 83 90 86 95 90 84 91 82 81 76 85 82 89 78 79 94 96 91 73 51 49 67 70 73 81 89 96
94 92 95 98 95 98 99 75 92 90 79 86 87 86 96 97 90 96 85 84 71 77 83 81 96 99 85 84 93 85 92 97 86 78 78 80 85 77 72 69 69 79 93 99 96
87 95 95 84 93 98 97 93 95 86 95 88 98 93 93 98 98 97 97 95 95 82 94 86 92 86 94 76 90 90 80 94 95 83 87 92 90 68 62 74 84 90 100 99 96
89 87 92 86 99 98 91 95 88 90 79 88 98 98 98 100 100 98 95 93 93 89 97 98 99 91 97 86 83 76 83 94 91 90 81 91 71 65 64 65 78 84 99 97 92
Wind_Speed
22 23 23 23 24 24 24 25 25 25 25 25 25 25 26 25 30 30 12 22 11 12 10 12 11 10 8 4 5 4 2 3 4 5 5 2 3 1 2 6 3 2 4 2 30
22 22 23 24 25 25 26 26 26 25 26 26 26 25 25 27 28 25 38 29 18 9 21 16 7 8 4 7 4 5 5 9 5 3 2 0 1 6 4 4 3 3 7 18 28
22 24 25 25 26 27 27 28 28 27 26 27 26 24 23 24 10 8 10 9 16 18 20 16 13 5 5 4 6 6 7 5 4 4 1 2 1 1 7 2 5 6 9 9 19
23 24 25 26 26 27 28 28 29 29 28 26 24 22 18 16 8 2 5 25 11 17 19 10 4 6 5 6 4 4 6 6 3 2 2 1 2 1 2 2 0 7 16 10 13
23 25 26 27 29 30 30 32 31 32 32 29 24 21 10 6 14 29 33 26 7 15 20 9 6 6 6 5 4 4 4 6 4 0 1 2 3 3 4 2 6 10 12 12 11
24 26 27 27 29 30 33 33 34 34 34 31 23 19 6 17 15 16 11 20 8 16 14 13 9 7 5 4 7 4 8 4 4 4 4 5 3 2 3 6 7 9 10 9 12
25 27 29 30 32 33 34 38 38 34 29 28 23 19 9 21 12 17 22 30 25 13 5 11 7 7 7 2 4 4 3 2 5 5 4 5 4 6 6 5 8 9 8 7 7
27 29 30 32 34 35 38 36 38 36 27 20 17 11 7 11 17 23 23 24 19 12 15 12 11 4 4 4 4 4 4 2 2 7 3 7 5 4 8 6 9 9 7 8 4
27 28 31 33 35 38 36 38 31 23 12 7 1 2 8 8 5 10 14 12 8 7 9 3 6 4 3 5 3 5 4 3 4 7 3 5 3 3 4 6 9 8 7 7 6
28 29 32 33 35 35 31 31 23 5 20 6 1 2 6 3 7 23 19 16 3 5 4 3 4 4 2 5 9 4 4 1 3 1 3 3 5 4 1 4 8 6 6 7 7
28 30 32 34 34 27 27 14 9 5 17 7 15 9 15 19 17 10 12 3 4 5 6 2 4 10 13 5 6 6 4 4 2 3 3 6 6 10 2 5 6 5 6 4 6
29 30 31 35 33 15 18 5 9 12 14 10 17 10 22 14 7 6 6 5 5 10 6 4 5 3 8 7 6 4 4 4 3 3 4 1 6 7 3 2 1 6 6 6 6
30 32 33 36 20 11 11 7 26 17 5 10 5 4 6 6 4 4 2 4 11 4 4 5 1 8 7 5 7 4 7 5 4 3 2 2 5 2 1 2 3 3 3 4 5
31 32 36 30 4 14 5 28 25 7 4 6 5 3 3 3 3 5 7 2 4 8 7 2 4 4 6 5 6 6 7 8 5 2 3 3 4 4 1 3 1 2 4 6 5
33 33 33 15 10 8 17 29 20 1 4 11 7 5 10 1 5 3 7 5 2 3 6 7 7 4 2 5 5 3 5 6 4 4 2 2 3 6 3 4 6 5 5 6 4
34 34 26 10 12 14 26 23 3 5 4 7 6 9 9 4 6 4 2 5 3 7 2 3 4 6 8 3 7 11 8 7 5 2 1 4 4 5 3 5 2 4 5 7 5
35 34 11 11 10 27 20 5 4 5 5 9 8 12 10 5 5 6 1 3 2 4 2 2 3 5 3 9 5 4 6 2 2 1 4 3 2 7 2 2 3 6 7 7 3
37 24 9 12 27 17 7 5 6 3 5 5 6 14 4 7 3 6 1 2 2 2 3 5 2 2 4 3 7 5 5 5 6 3 3 2 5 5 2 3 2 2 4 6 4
36 18 9 24 22 11 5 5 4 4 5 8 12 4 5 3 1 5 4 1 1 2 4 4 2 4 3 1 3 4 2 4 7 1 3 3 6 3 2 5 4 5 4 4 3
25 10 8 29 14 6 5 3 3 4 7 3 4 4 5 6 6 3 3 5 4 0 1 2 4 4 3 2 7 2 5 4 3 3 3 4 4 4 2 3 5 3 5 4 3
7 4 15 27 6 5 3 3 5 8 9 3 3 4 5 5 4 5 7 2 5 1 2 4 3 2 3 1 6 2 2 5 5 3 5 1 5 4 5 6 8 7 6 5 4
4 3 17 21 5 2 2 4 7 8 4 4 3 3 4 7 3 4 4 5 10 3 2 1 5 3 1 2 3 2 4 4 4 4 2 3 4 2 6 5 6 7 5 4 4
2 2 7 10 4 3 6 5 4 6 7 6 4 5 3 5 5 5 5 6 10 7 2 2 2 3 2 3 3 2 3 4 5 3 6 5 4 1 1 3 3 6 6 5 4
2 4 4 4 1 2 5 5 8 7 4 6 4 5 6 3 2 4 7 3 4 6 9 2 3 4 4 5 2 3 1 3 4 3 4 5 2 2 2 3 4 6 6 5 5
3 1 1 4 4 6 0 5 7 8 4 4 3 5 7 4 6 5 4 6 3 10 4 3 3 3 4 3 2 2 4 4 3 4 5 4 6 5 5 7 7 3 1 1 3
2 2 2 2 3 5 5 3 8 9 3 6 5 10 4 2 3 4 5 3 2 6 4 5 3 2 4 5 6 1 1 3 1 2 4 3 5 7 2 2 4 3 1 2 3
1 1 3 2 2 3 2 5 9 15 5 7 9 9 3 3 4 2 2 3 2 1 4 4 3 3 2 4 4 4 5 4 2 3 5 3 2 1 2 4 3 3 5 4 3
Wind_Direction
3 358 354 353 350 347 345 341 337 334 331 326 323 319 321 319 316 312 253 259 247 228 193 184 190 180 161 140 128 136 103 213 240 158 254 184 143 72 107 112 89 85 128 270 152
359 354 352 351 347 344 342 339 335 330 328 327 326 321 316 325 318 286 281 275 246 223 204 176 181 155 166 166 170 146 162 210 206 207 260 246 210 148 132 124 106 79 58 126 146
358 357 354 351 346 342 339 335 331 325 322 323 321 320 320 322 311 249 34 8 248 222 216 198 180 152 176 143 188 181 191 199 223 209 152 117 47 345 127 194 194 177 148 143 148
359 354 351 347 344 340 334 330 324 320 318 317 316 318 318 316 284 260 350 336 334 198 193 159 136 168 179 192 195 161 207 165 206 148 102 62 131 61 246 213 69 161 154 149 162
354 352 348 345 341 337 332 327 322 317 313 311 310 308 308 260 250 264 297 321 297 196 192 167 159 143 187 195 138 216 210 193 222 247 237 99 253 242 218 151 75 127 150 159 164
353 349 344 341 338 333 328 324 318 312 309 307 303 291 227 261 267 268 274 330 340 217 198 169 187 180 180 208 181 212 195 179 169 187 182 161 237 116 281 141 115 145 173 170 168
350 346 343 341 337 334 329 324 316 310 309 302 293 280 198 241 277 272 275 301 288 279 190 194 188 153 144 188 211 148 135 154 187 173 210 138 259 219 234 170 163 182 181 185 166
347 346 344 341 337 336 330 324 319 314 313 300 290 223 242 259 273 286 288 278 282 264 225 220 190 117 153 123 46 112 70 161 301 154 208 141 258 234 222 168 213 209 187 179 162
345 345 342 341 339 337 333 327 326 328 347 330 184 171 261 291 273 295 307 254 270 236 215 192 151 155 104 111 64 5 177 184 314 183 128 184 237 278 167 189 217 206 196 146 126
344 344 342 341 339 339 336 343 334 316 356 331 256 251 267 293 332 319 329 279 176 130 142 122 99 123 74 168 212 190 124 138 192 169 167 199 252 273 41 170 216 203 158 147 135
343 344 342 338 337 340 350 8 9 344 340 262 265 269 285 287 297 272 325 249 161 154 157 130 141 202 194 179 141 140 128 164 241 250 184 226 236 252 239 81 109 130 141 125 109
345 342 339 336 336 350 7 54 8 311 311 291 256 237 258 270 300 298 16 192 193 178 119 111 220 169 153 155 145 143 141 181 296 287 170 191 257 258 190 134 122 162 170 154 120
343 339 339 337 338 346 0 16 336 336 283 297 262 256 256 129 233 287 344 329 160 129 129 161 222 164 149 148 147 161 193 156 202 1 48 310 300 278 35 73 98 33 124 119 136
341 339 339 340 26 334 342 337 335 322 294 280 334 307 300 191 287 169 69 15 356 159 146 231 178 136 155 163 146 183 191 179 205 193 224 4 264 286 118 263 218 141 154 144 133
338 338 339 347 322 325 329 335 333 152 8 322 307 304 323 316 309 62 126 139 162 176 145 219 156 129 296 167 138 213 139 146 98 105 14 329 67 270 24 274 222 190 168 157 156
337 338 340 354 331 328 329 337 17 37 281 321 320 331 343 356 350 125 120 68 295 176 40 150 134 158 190 105 147 162 91 61 71 95 14 244 136 272 209 212 102 135 163 157 143
339 343 358 351 323 325 335 47 26 95 349 332 327 330 323 322 342 9 142 153 181 116 118 57 79 327 105 82 49 120 86 56 41 25 214 307 51 251 227 102 172 188 167 162 137
339 346 15 359 340 338 12 57 51 284 284 304 298 316 329 359 347 339 207 144 195 61 112 155 163 4 4 141 156 146 165 150 173 184 235 83 234 256 24 1 320 166 143 143 127
340 354 6 350 346 352 62 52 215 266 317 312 315 347 325 357 314 331 352 59 248 167 123 128 41 319 30 86 139 176 154 151 105 326 58 228 285 334 39 43 79 109 111 180 264
339 335 344 348 348 33 65 349 292 329 304 281 314 21 317 324 345 337 3 10 333 56 184 179 90 346 320 97 28 134 153 87 7 125 234 287 272 244 239 174 151 157 185 246 283
1 24 348 350 21 42 77 271 295 294 328 283 310 297 287 317 300 341 0 59 345 76 82 118 76 313 330 52 165 118 26 57 103 110 158 219 272 216 229 205 186 203 217 222 244
11 17 350 353 49 20 6 296 295 308 360 310 290 292 309 312 331 343 11 346 346 332 139 43 131 117 165 293 296 125 165 139 124 236 88 140 276 267 258 235 183 208 229 248 241
13 292 351 3 63 339 320 302 286 316 330 346 311 7 309 298 329 13 8 353 10 13 42 169 341 89 77 10 1 212 148 113 108 92 187 140 261 166 93 104 216 197 234 256 268
44 3 328 41 72 92 344 309 332 301 300 336 287 308 327 323 322 318 349 31 21 359 47 30 89 143 173 204 130 158 113 144 114 126 167 221 241 231 174 178 221 246 249 256 267
40 280 285 334 344 344 77 328 324 344 329 330 317 2 343 318 337 2 337 341 1 -0 46 64 90 93 42 30 59 141 165 168 145 161 160 243 195 259 240 215 220 250 295 236 289
81 59 324 315 325 4 348 317 314 326 278 315 309 335 335 353 5 323 326 24 3 330 49 356 98 88 8 31 26 2 82 114 87 168 292 129 271 222 226 190 283 282 213 219 259
101 238 115 334 29 27 264 348 311 317 272 243 293 302 334 7 340 323 76 63 6 105 16 51 103 53 274 7 354 343 227 196 199 245 153 189 236 77 302 290 285 271 200 224 274